Погода в Верхнем Ломовце

Россия / Липецкая область     52°14′32″N   38°36′33″E
темп.,
°C
ветер,
м/с
пор.,
м/с
влажн.,
%
обл.,
%
осадки,
мм/ч
давл.,
гПа
погр.,
м
18 августа, чт
чт1800:00+22всв7164887 0.0 1013701
03:00+21всв6144660 0.1 1013479
06:00+21всв7164522 0.0 1012586
09:00+24всв9144479 0.3 1012814
12:00+26всв81338100 0.7 10121303
15:00+28вюв8938100 1.6 10121692
18:00+26всв8143861 0.0 10121486
21:00+22всв7125691 0.0 1014485
19 августа, пт
пт1900:00+20в71371100 0.0 1014619
03:00+18всв71486100 0.1 1015500
06:00+18всв9168344 0.1 1015927
09:00+21в10155993 0.1 10161182
12:00+21в81461100 0.1 10171360
15:00+19в101564100 0.1 10191021
18:00+17в91788100 0.6 10191041
21:00+17в91881100 0.6 10191151
20 августа, сб
сб2000:00+18в101774100 0.0 10181021
03:00+20вюв91556100 0.0 1018976
06:00+20вюв81551100 0.0 1019912
09:00+23вюв81343100 0.0 10201058
12:00+26юв91230100 0.0 10201526
15:00+27ююв5926100 0.0 10191304
18:00+27юв91327100 0.0 10191221
21:00+24вюв71530100 0.0 1020839
21 августа, вс
вс2100:00+23вюв61424100 0.0 1021722
03:00+20вюв61325100 0.0 1021411
06:00+19вюв51225100 0.0 1021355
09:00+22вюв71323100 0.0 1021514
12:00+26юв7917100 0.0 10211258
15:00+28вюв891598 0.0 10201653
18:00+26в6102199 0.0 1020864
21:00+21в5132799 0.0 1020246
22 августа, пн
пн2200:00+19в51426100 0.0 1020282
03:00+18в41231100 0.0 1020239
06:00+16в4123890 0.0 1021218
09:00+24вюв6102987 0.0 1021477
12:00+30вюв8112118 0.0 10202264
15:00+31вюв89185 0.0 10192692
18:00+30вюв610205 0.0 1019846
21:00+23в410315 0.0 1020155